GSAT0204 (GALILEO 8) (40545 NORAD) Tracking and Keplerian Element Data

This shows tracking and keplerian element data for the satellite.

Feedback or suggestion? Click here.




ElementValue
Catalog40545
NameGSAT0204 (GALILEO 8)
Epoch Orbit2313
Epoch Day348.88510523
Epoch Year2018
RAAN56.7201
Inclination56.0406
Eccentricity0.0003035
Argument of Perigee214.8054
Mean Anonmoly145.2202
Mean Motion1.70475639
Decay Rate-6.3E-07
L11 40545U 15017B 18348.88510523 -.00000063 00000-0 00000+0 0 9997
L22 40545 56.0406 56.7201 0003035 214.8054 145.2202 1.70475639 23134

Live tracking and technical data element details for GSAT0204 (GALILEO 8) (NORAD 40545). GSAT0204 (GALILEO 8) can be tracked NOW for your location showing map with azimuth and elevation plus other details from your city location.

Track the satellite on the map from your city or location and see movement details for azimuth, elevation, latitude, longitude, range, height, and movement on the map or in text.







IsCatalogInMostPopularTable: catalog: 40545, numindb: 112
Update: records affected: 1



GetName: 40545 GSAT0204 (GALILEO 8)

Hit Count: updated at: Sun, 16 Dec 2018 11:40:15 GMT